Stations météo

Publicité
La Rochelle/Ile de Re, France (7316): Température de l'air & dewpoint: 25.10.2020 23:00:00 - 31.10.2020 23:00:00 (CET)La Rochelle/Ile de Re, France (7316): Vitesse du vent & gusts: 25.10.2020 23:00:00 - 31.10.2020 23:00:00 (CET)La Rochelle/Ile de Re, France (7316): Direction du vent: 25.10.2020 23:00:00 - 31.10.2020 23:00:00 (CET)La Rochelle/Ile de Re, France (7316): reduced air pressure: 25.10.2020 23:00:00 - 31.10.2020 23:00:00 (CET)La Rochelle/Ile de Re, France (7316): visibility: 25.10.2020 23:00:00 - 31.10.2020 23:00:00 (CET)La Rochelle/Ile de Re, France (7316): Ensoleillement: 25.10.2020 23:00:00 - 31.10.2020 23:00:00 (CET)La Rochelle/Ile de Re, France (7316): Quantités de précipitations: 25.10.2020 23:00:00 - 31.10.2020 23:00:00 (CET)
Date & Time tt [°C] td [°C] ff [km/h] ff [knt] fx [km/h] fx [knt] dd ppp [hPa] vv [km] sd [min] rr [mm]
31.10.2020 23:00:00 17,1 14,7 18 10 35 19 SSW 1019,9 19 - 0,0
31.10.2020 22:00:00 16,5 14,9 15 8 26 14 S 1019,9 10 0 0,4
31.10.2020 21:00:00 17,1 14,4 16 9 31 17 SSW 1019,6 20 0 0,0
31.10.2020 20:00:00 17,2 14,7 18 10 32 17 SSW 1019,8 27 0 0,0
31.10.2020 19:00:00 17,0 15,0 18 10 42 23 SW 1019,9 19 0 0,2
31.10.2020 18:00:00 17,8 14,1 18 10 37 20 SSW 1019,9 32 0 0,0
31.10.2020 17:00:00 17,6 14,1 17 9 31 17 SSW 1019,8 22 0 0,0
31.10.2020 16:00:00 17,0 14,3 20 11 31 17 S 1019,5 15 0 0,0
31.10.2020 15:00:00 16,0 14,0 17 9 29 16 S 1020,0 12 0 0,0
31.10.2020 14:00:00 15,3 13,8 18 10 30 16 S 1020,1 14 1 0,0
31.10.2020 13:00:00 14,8 13,8 20 11 36 19 S 1020,6 7 7 0,0
31.10.2020 12:00:00 14,2 14,0 18 10 30 16 S 1020,9 5 0 0,0
31.10.2020 11:00:00 13,1 13,1 24 13 36 19 S 1021,0 3,1 0 0,0
31.10.2020 10:00:00 13,2 13,2 23 12 36 19 S 1020,9 0,5 0 0,0
31.10.2020 09:00:00 13,0 13,0 24 13 39 21 S 1021,1 0,2 0 0,0
31.10.2020 08:00:00 12,8 12,8 21 11 34 18 S 1020,9 0,1 0 0,0
31.10.2020 07:00:00 13,0 12,7 18 10 29 15 SSE 1020,6 4,2 0 0,2
31.10.2020 06:00:00 12,7 12,4 13 7 21 11 SSE 1020,9 10 0 0,0
31.10.2020 05:00:00 11,8 11,3 12 7 20 11 SSE 1021,4 10 0 0,0
31.10.2020 04:00:00 12,5 11,9 11 6 19 11 SSE 1021,7 13 0 0,0
31.10.2020 03:00:00 11,4 10,5 13 7 20 11 SE 1022,1 14 0 0,0
31.10.2020 02:00:00 11,7 10,6 11 6 18 10 SSE 1022,6 16 0 0,0
31.10.2020 01:00:00 12,3 10,9 13 7 21 11 SSE 1022,8 20 0 0,0
31.10.2020 00:00:00 12,1 10,8 11 6 21 11 SE 1023,4 20 0 0,0
30.10.2020 23:00:00 12,7 10,9 12 7 22 12 SE 1023,9 22 0 0,0
30.10.2020 22:00:00 13,4 11,6 14 8 21 11 SE 1023,9 22 0 0,0
30.10.2020 21:00:00 13,0 11,6 14 8 17 9 ESE 1024,0 19 0 0,0
30.10.2020 20:00:00 12,7 11,3 12 6 14 8 ESE 1024,2 16 0 0,0
30.10.2020 19:00:00 13,7 11,6 10 5 11 6 E 1024,6 19 0 0,0
30.10.2020 18:00:00 15,6 11,8 5 3 10 5 SSE 1024,7 32 29 0,0
30.10.2020 17:00:00 17,4 11,9 6 3 15 8 SSE 1024,7 40 60 0,0
30.10.2020 16:00:00 17,7 12,2 11 6 20 11 SSE 1024,9 52 60 0,0
30.10.2020 15:00:00 17,6 12,5 9 5 16 9 SSE 1025,1 41 60 0,0
30.10.2020 14:00:00 17,1 12,6 10 5 16 8 S 1025,4 60 60 0,0
30.10.2020 13:00:00 16,3 12,6 10 5 15 8 S 1025,9 20 60 0,0
30.10.2020 12:00:00 15,2 13,0 10 5 18 10 S 1026,3 7 60 0,0
30.10.2020 11:00:00 14,0 13,8 11 6 19 10 S 1026,2 7 60 0,0
30.10.2020 10:00:00 12,5 12,5 11 6 19 10 S 1026,3 0,3 24 0,2
30.10.2020 09:00:00 11,8 11,8 12 7 18 10 SSE 1026,1 0,1 4 0,0
30.10.2020 08:00:00 11,8 11,8 12 6 18 10 SSE 1025,8 0,1 0 0,0
30.10.2020 07:00:00 12,3 12,3 11 6 16 9 SSE 1025,8 0,2 0 0,0
30.10.2020 06:00:00 12,3 12,3 12 7 16 9 SSE 1025,9 0,1 0 0,0
30.10.2020 05:00:00 12,1 12,1 11 6 16 9 SSE 1025,5 0,1 0 0,0
30.10.2020 04:00:00 12,7 12,7 11 6 16 8 SSE 1025,5 0,3 0 0,2
30.10.2020 03:00:00 11,9 10,8 6 4 12 6 S 1025,6 2,1 0 0,0
30.10.2020 02:00:00 13,3 12,8 7 4 10 5 S 1025,6 9 0 0,0
30.10.2020 01:00:00 13,7 12,9 8 5 14 7 S 1025,6 14 0 0,0
30.10.2020 00:00:00 14,2 13,1 8 4 17 9 SSW 1025,8 14 0 0,0
29.10.2020 23:00:00 14,4 13,1 10 6 18 10 SW 1025,9 12 0 0,0
29.10.2020 22:00:00 14,5 13,0 10 5 21 11 SW 1025,8 13 0 0,0
29.10.2020 21:00:00 14,8 13,2 12 6 29 16 SW 1025,4 18 0 0,0
29.10.2020 20:00:00 15,5 13,2 16 8 25 14 SW 1025,3 16 0 0,0
29.10.2020 19:00:00 15,4 13,4 16 9 27 14 SW 1025,1 20 0 0,0
29.10.2020 18:00:00 15,8 13,5 15 8 29 16 WSW 1024,9 27 30 0,0
29.10.2020 17:00:00 16,4 13,7 19 10 32 18 SW 1024,7 19 49 0,0
29.10.2020 16:00:00 16,9 13,8 22 12 37 20 SW 1024,4 19 55 0,0
29.10.2020 15:00:00 17,3 14,0 21 11 39 21 WSW 1024,4 17 55 0,0
29.10.2020 14:00:00 17,1 14,9 18 10 40 22 WSW 1024,8 18 16 0,0
29.10.2020 13:00:00 16,4 13,9 19 11 48 26 WSW 1025,0 17 7 0,0
29.10.2020 12:00:00 17,1 14,4 20 11 36 20 WSW 1025,1 18 43 0,0
29.10.2020 11:00:00 15,5 13,2 23 13 43 23 WSW 1024,9 17 47 0,0
29.10.2020 10:00:00 16,0 13,7 19 11 30 16 WSW 1024,4 17 45 0,0
29.10.2020 09:00:00 14,6 13,5 16 9 27 14 WSW 1024,2 19 4 0,0
29.10.2020 08:00:00 14,4 12,6 11 6 34 18 WSW 1023,7 18 0 0,0
29.10.2020 07:00:00 14,9 13,1 20 11 34 18 WSW 1022,9 11 0 0,0
29.10.2020 06:00:00 14,8 12,8 19 10 28 15 WSW 1022,6 20 0 0,0
29.10.2020 05:00:00 14,9 12,9 17 9 29 16 WSW 1021,9 18 0 0,0
29.10.2020 04:00:00 14,7 13,1 18 10 31 17 WSW 1021,8 18 0 0,2
29.10.2020 03:00:00 13,4 11,6 13 7 35 19 W 1021,9 26 0 0,0
29.10.2020 02:00:00 13,5 11,9 27 14 52 28 WNW 1021,6 20 0 0,4
29.10.2020 01:00:00 15,2 12,9 22 12 45 25 W 1021,0 14 0 0,0
29.10.2020 00:00:00 15,2 12,5 27 15 51 28 WSW 1020,9 16 0 0,0
28.10.2020 23:00:00 15,0 12,1 27 15 45 24 WSW 1020,7 16 0 0,0
28.10.2020 22:00:00 14,6 12,3 25 13 42 23 W 1020,2 15 0 0,0
28.10.2020 21:00:00 12,6 11,0 22 12 51 28 WSW 1019,8 15 0 1,4
28.10.2020 20:00:00 14,1 11,8 24 13 51 28 WSW 1019,4 19 0 0,6
28.10.2020 19:00:00 14,0 11,9 30 16 49 26 SW 1018,4 20 0 0,0
28.10.2020 18:00:00 13,7 12,6 29 16 58 32 WSW 1018,0 16 0 5,4
28.10.2020 17:00:00 13,8 12,2 26 14 54 29 W 1017,9 3,9 0 1,0
28.10.2020 16:00:00 16,0 11,4 33 18 56 30 WSW 1017,4 16 8 0,0
28.10.2020 15:00:00 16,5 11,6 31 17 54 29 WSW 1017,0 16 37 0,0
28.10.2020 14:00:00 16,2 11,4 33 18 53 29 SW 1016,9 17 14 0,0
28.10.2020 13:00:00 17,1 10,9 29 16 55 30 WSW 1017,0 18 43 0,0
28.10.2020 12:00:00 16,7 11,0 30 16 52 28 WSW 1017,1 19 49 0,0
28.10.2020 11:00:00 16,3 10,6 29 16 46 25 WSW 1016,7 17 54 0,0
28.10.2020 10:00:00 15,7 11,3 22 12 41 22 SW 1016,0 13 55 0,0
28.10.2020 09:00:00 15,1 10,5 20 11 33 18 SW 1015,7 14 27 0,0
28.10.2020 08:00:00 14,1 9,5 16 9 29 16 WSW 1015,0 19 0 0,0
28.10.2020 07:00:00 13,8 10,2 13 7 32 17 WSW 1014,4 17 0 0,0
28.10.2020 06:00:00 14,3 9,9 21 12 33 18 W 1014,1 19 0 0,0
28.10.2020 05:00:00 14,2 10,8 21 12 35 19 WSW 1013,6 19 0 0,0
28.10.2020 04:00:00 14,1 10,7 17 9 61 33 WSW 1013,1 28 0 0,0
28.10.2020 03:00:00 14,2 11,4 26 14 45 24 WSW 1013,2 8 0 0,0
28.10.2020 02:00:00 14,6 11,2 19 10 34 18 WSW 1012,5 16 0 0,0
28.10.2020 01:00:00 14,1 11,4 17 9 36 19 WSW 1012,5 19 0 0,0
28.10.2020 00:00:00 14,5 12,0 21 11 34 19 WSW 1011,8 19 0 0,0
27.10.2020 23:00:00 14,6 12,8 24 13 36 20 W 1011,2 3,7 0 1,2
27.10.2020 22:00:00 14,8 13,2 18 10 41 22 WSW 1010,7 20 0 0,0
27.10.2020 21:00:00 14,7 13,7 22 12 40 22 SW 1009,6 18 0 0,0
27.10.2020 20:00:00 15,1 14,5 31 17 63 34 SW 1009,2 15 0 0,4
27.10.2020 19:00:00 14,9 14,6 29 16 54 29 SW 1008,7 2,2 0 0,9
27.10.2020 18:00:00 14,7 14,4 31 17 56 30 SW 1008,4 3,0 0 0,8
27.10.2020 17:00:00 14,4 14,1 35 19 61 33 SW 1008,3 2,9 0 1,2
27.10.2020 16:00:00 14,2 13,9 38 20 68 37 SW 1008,6 2,3 0 1,6
27.10.2020 15:00:00 14,5 14,0 35 19 70 38 SW 1008,5 2,2 0 2,4
27.10.2020 14:00:00 14,7 14,2 36 20 61 33 WSW 1008,6 2,7 0 0,8
27.10.2020 13:00:00 14,3 13,8 33 18 54 29 SW 1009,1 2,5 0 1,0
27.10.2020 12:00:00 14,3 13,8 29 16 50 27 SW 1009,9 3,9 0 1,4
27.10.2020 11:00:00 13,9 13,4 19 10 35 19 SW 1010,1 10 0 1,0
27.10.2020 10:00:00 12,8 12,3 17 9 28 15 S 1010,7 1,8 0 1,2
27.10.2020 09:00:00 12,8 10,9 16 8 27 14 SW 1011,0 11 0 3,5
27.10.2020 08:00:00 12,8 11,5 11 6 27 15 SSW 1011,0 5 0 0,6
27.10.2020 07:00:00 12,1 11,0 11 6 53 29 SW 1010,9 15 0 0,6
27.10.2020 06:00:00 13,7 9,9 18 10 40 22 WSW 1010,9 38 0 0,0
27.10.2020 05:00:00 13,5 10,5 18 10 35 19 WSW 1010,8 33 0 0,0
27.10.2020 04:00:00 12,0 10,1 9 5 23 13 WSW 1011,3 19 0 0,0
27.10.2020 03:00:00 11,7 9,4 15 8 39 21 WSW 1012,0 42 0 0,2
27.10.2020 02:00:00 12,2 8,1 19 10 27 15 W 1012,2 38 0 0,0
27.10.2020 01:00:00 11,6 8,3 15 8 31 17 W 1012,4 37 0 0,0
27.10.2020 00:00:00 11,9 8,7 24 13 47 25 W 1012,5 16 0 0,0
26.10.2020 23:00:00 11,9 8,4 19 10 35 19 W 1012,6 40 0 0,0
26.10.2020 22:00:00 12,4 8,9 18 10 32 18 W 1012,3 19 0 0,0
26.10.2020 21:00:00 12,2 8,3 17 9 35 19 WSW 1012,0 34 0 0,0
26.10.2020 20:00:00 11,7 8,9 18 10 51 28 W 1011,8 36 0 0,0
26.10.2020 19:00:00 12,5 8,8 26 14 53 29 W 1011,4 19 0 0,2
26.10.2020 18:00:00 12,9 8,4 22 12 41 22 W 1010,8 29 16 0,0
26.10.2020 17:00:00 13,5 8,8 27 15 48 26 W 1010,5 32 24 0,0
26.10.2020 16:00:00 14,0 7,5 35 19 52 28 WNW 1010,1 17 54 0,0
26.10.2020 15:00:00 15,0 9,1 34 18 51 27 W 1010,0 20 43 0,2
26.10.2020 14:00:00 14,8 9,6 26 14 42 23 WSW 1010,0 20 47 0,0
26.10.2020 13:00:00 12,6 9,1 16 9 66 36 WSW 1010,7 32 11 1,4
26.10.2020 12:00:00 14,3 8,5 21 12 36 19 W 1010,6 21 26 0,0
26.10.2020 11:00:00 13,6 8,8 14 7 35 19 W 1010,1 36 26 0,0
26.10.2020 10:00:00 12,7 9,5 20 11 58 32 WNW 1010,0 37 19 0,8
26.10.2020 09:00:00 12,3 8,4 24 13 40 22 NW 1009,2 32 15 0,0
26.10.2020 08:00:00 11,6 8,4 14 8 31 17 W 1008,6 40 0 0,0
26.10.2020 07:00:00 11,4 8,6 21 11 35 19 W 1007,8 38 0 0,4
26.10.2020 06:00:00 11,9 8,6 17 9 41 22 W 1007,3 17 0 0,0
26.10.2020 05:00:00 12,1 8,2 18 10 36 19 W 1006,8 37 0 0,0
26.10.2020 04:00:00 11,7 7,2 19 10 32 18 W 1006,5 43 0 0,0
26.10.2020 03:00:00 11,7 8,4 13 7 25 13 W 1006,7 36 0 0,0
26.10.2020 02:00:00 11,0 8,6 14 8 53 29 W 1006,7 18 0 0,4
26.10.2020 01:00:00 11,4 8,4 31 17 44 24 NW 1006,7 31 0 0,4
26.10.2020 00:00:00 12,4 7,9 17 9 29 16 W 1006,6 47 0 0,0
25.10.2020 23:00:00 12,6 7,9 13 7 35 19 WSW 1007,0 49 0 0,0

tt = Température de l'air
td = dewpoint
ff = Vitesse du vent
fx = gusts
dd = Direction du vent
ppp = reduced air pressure
vv = visibility
sd = Ensoleillement
rr = Quantités de précipitations

stations d'obs. à proximité